QPF
0.00 0.00 0.00 0.00 0.00 0.00 0.00 0.00 0.00 0.00 0.00 0.00 0.00 0.00 0.00 0.00 0.00 0.00 0.00 0.00 0.00 0.00 0.00 0.00 0.00 0.00 0.00 0.00 0.00 0.00 0.01 0.00 0.00 0.00 0.00 0.00 0.00 0.00 0.00 0.00 0.00 0.01 0.00 0.00 0.00
0.00 0.00 0.00 0.00 0.00 0.00 0.00 0.00 0.00 0.00 0.00 0.00 0.00 0.00 0.00 0.00 0.00 0.00 0.00 0.00 0.00 0.00 0.00 0.00 0.00 0.00 0.00 0.00 0.00 0.01 0.00 0.00 0.00 0.00 0.00 0.00 0.00 0.00 0.00 0.00 0.00 0.00 0.00 0.00 0.00
0.00 0.00 0.00 0.00 0.00 0.00 0.00 0.00 0.00 0.00 0.00 0.00 0.00 0.00 0.00 0.00 0.00 0.00 0.00 0.00 0.00 0.00 0.00 0.00 0.00 0.00 0.00 0.00 0.00 0.00 0.00 0.00 0.00 0.00 0.00 0.00 0.00 0.00 0.00 0.00 0.00 0.00 0.00 0.00 0.00
0.00 0.00 0.00 0.00 0.00 0.00 0.00 0.00 0.00 0.00 0.00 0.00 0.00 0.00 0.00 0.00 0.00 0.00 0.00 0.00 0.00 0.00 0.00 0.00 0.00 0.00 0.00 0.00 0.00 0.00 0.00 0.00 0.00 0.00 0.00 0.00 0.00 0.00 0.00 0.00 0.00 0.00 0.00 0.00 0.00
0.00 0.00 0.00 0.00 0.00 0.00 0.00 0.00 0.00 0.00 0.00 0.00 0.00 0.00 0.00 0.00 0.00 0.00 0.00 0.00 0.00 0.00 0.00 0.00 0.00 0.00 0.00 0.00 0.00 0.00 0.00 0.00 0.00 0.00 0.00 0.00 0.00 0.00 0.00 0.00 0.00 0.00 0.00 0.00 0.00
0.00 0.00 0.00 0.00 0.00 0.00 0.00 0.00 0.00 0.00 0.00 0.00 0.00 0.00 0.00 0.00 0.00 0.00 0.00 0.00 0.00 0.00 0.00 0.00 0.00 0.00 0.00 0.00 0.00 0.00 0.00 0.00 0.00 0.00 0.00 0.00 0.00 0.00 0.00 0.00 0.00 0.00 0.00 0.00 0.00
0.00 0.00 0.00 0.00 0.00 0.00 0.00 0.00 0.00 0.00 0.00 0.00 0.00 0.00 0.00 0.00 0.00 0.00 0.00 0.00 0.00 0.00 0.00 0.00 0.00 0.00 0.00 0.00 0.00 0.00 0.00 0.00 0.00 0.00 0.00 0.00 0.00 0.00 0.00 0.00 0.00 0.00 0.00 0.00 0.00
0.00 0.00 0.00 0.00 0.00 0.00 0.00 0.00 0.00 0.00 0.00 0.00 0.00 0.00 0.00 0.00 0.00 0.00 0.00 0.00 0.00 0.00 0.00 0.00 0.00 0.00 0.00 0.00 0.00 0.00 0.00 0.00 0.00 0.00 0.00 0.00 0.00 0.00 0.00 0.00 0.00 0.00 0.00 0.00 0.00
0.00 0.00 0.00 0.00 0.00 0.00 0.00 0.00 0.00 0.00 0.00 0.00 0.00 0.00 0.00 0.00 0.00 0.00 0.00 0.00 0.00 0.00 0.00 0.00 0.00 0.00 0.00 0.00 0.00 0.00 0.00 0.00 0.00 0.00 0.00 0.00 0.00 0.00 0.00 0.00 0.00 0.00 0.00 0.00 0.00
0.00 0.00 0.00 0.00 0.00 0.00 0.00 0.00 0.00 0.00 0.00 0.00 0.00 0.00 0.00 0.00 0.00 0.00 0.00 0.00 0.00 0.00 0.00 0.00 0.00 0.00 0.00 0.00 0.00 0.00 0.00 0.00 0.00 0.00 0.00 0.00 0.00 0.00 0.00 0.00 0.00 0.00 0.00 0.00 0.00
0.00 0.00 0.00 0.00 0.00 0.00 0.00 0.00 0.00 0.00 0.00 0.00 0.00 0.00 0.00 0.00 0.00 0.00 0.00 0.00 0.00 0.00 0.00 0.00 0.00 0.00 0.00 0.00 0.00 0.00 0.00 0.00 0.00 0.00 0.00 0.00 0.00 0.00 0.00 0.00 0.00 0.00 0.00 0.00 0.00
0.00 0.00 0.00 0.00 0.00 0.00 0.00 0.00 0.00 0.00 0.00 0.00 0.00 0.00 0.00 0.00 0.00 0.00 0.00 0.00 0.00 0.00 0.00 0.00 0.00 0.00 0.00 0.00 0.00 0.00 0.00 0.00 0.00 0.00 0.00 0.00 0.00 0.00 0.00 0.00 0.00 0.00 0.00 0.00 0.00
0.00 0.00 0.00 0.00 0.00 0.00 0.00 0.00 0.00 0.00 0.00 0.00 0.00 0.00 0.00 0.00 0.00 0.00 0.00 0.00 0.00 0.00 0.00 0.00 0.00 0.00 0.00 0.00 0.00 0.00 0.00 0.00 0.00 0.00 0.00 0.00 0.00 0.00 0.00 0.00 0.00 0.00 0.00 0.00 0.00
0.00 0.00 0.00 0.00 0.00 0.00 0.00 0.00 0.00 0.00 0.00 0.00 0.00 0.00 0.00 0.00 0.00 0.00 0.00 0.00 0.00 0.00 0.00 0.00 0.00 0.00 0.00 0.00 0.00 0.00 0.00 0.00 0.00 0.00 0.00 0.00 0.00 0.00 0.00 0.00 0.00 0.00 0.00 0.00 0.00
0.00 0.00 0.00 0.00 0.00 0.00 0.00 0.00 0.00 0.00 0.00 0.00 0.00 0.00 0.00 0.00 0.00 0.00 0.00 0.00 0.00 0.00 0.00 0.00 0.00 0.00 0.00 0.00 0.00 0.00 0.00 0.00 0.00 0.00 0.00 0.00 0.00 0.00 0.00 0.00 0.01 0.00 0.00 0.00 0.00
0.00 0.00 0.00 0.00 0.00 0.00 0.00 0.00 0.00 0.00 0.00 0.00 0.00 0.00 0.00 0.00 0.00 0.00 0.00 0.00 0.00 0.00 0.00 0.00 0.00 0.00 0.00 0.00 0.00 0.00 0.00 0.00 0.00 0.00 0.00 0.00 0.00 0.00 0.00 0.00 0.00 0.01 0.00 0.00 0.00
0.00 0.00 0.00 0.00 0.00 0.00 0.00 0.00 0.00 0.00 0.00 0.00 0.00 0.00 0.00 0.00 0.00 0.00 0.00 0.00 0.00 0.00 0.00 0.00 0.00 0.00 0.00 0.00 0.00 0.00 0.00 0.00 0.00 0.00 0.00 0.00 0.00 0.00 0.00 0.00 0.00 0.00 0.00 0.00 0.00
0.00 0.00 0.00 0.00 0.00 0.00 0.00 0.00 0.00 0.00 0.00 0.00 0.00 0.00 0.00 0.00 0.00 0.00 0.00 0.00 0.00 0.00 0.00 0.00 0.00 0.00 0.00 0.00 0.00 0.00 0.00 0.00 0.00 0.00 0.00 0.00 0.00 0.00 0.00 0.00 0.00 0.00 0.00 0.00 0.00
0.00 0.00 0.00 0.00 0.00 0.00 0.00 0.00 0.00 0.00 0.00 0.00 0.00 0.00 0.00 0.00 0.00 0.00 0.00 0.00 0.00 0.00 0.00 0.00 0.00 0.00 0.00 0.00 0.00 0.00 0.00 0.00 0.00 0.00 0.00 0.00 0.00 0.00 0.00 0.00 0.00 0.00 0.00 0.00 0.00
0.00 0.00 0.00 0.00 0.00 0.00 0.00 0.00 0.00 0.00 0.00 0.00 0.00 0.00 0.00 0.00 0.00 0.00 0.00 0.00 0.00 0.00 0.00 0.00 0.00 0.00 0.00 0.00 0.00 0.00 0.00 0.00 0.00 0.00 0.00 0.00 0.00 0.00 0.00 0.00 0.00 0.00 0.00 0.00 0.00
0.00 0.00 0.00 0.00 0.00 0.00 0.00 0.00 0.00 0.00 0.00 0.00 0.00 0.00 0.00 0.00 0.00 0.00 0.00 0.00 0.00 0.00 0.00 0.00 0.00 0.00 0.00 0.00 0.00 0.00 0.00 0.00 0.00 0.00 0.00 0.00 0.00 0.00 0.00 0.00 0.00 0.00 0.00 0.00 0.00
0.00 0.00 0.00 0.00 0.00 0.00 0.00 0.00 0.00 0.00 0.00 0.00 0.00 0.00 0.00 0.00 0.00 0.00 0.00 0.00 0.00 0.00 0.00 0.00 0.00 0.00 0.00 0.00 0.00 0.00 0.00 0.00 0.00 0.00 0.00 0.00 0.00 0.00 0.00 0.00 0.00 0.00 0.00 0.00 0.00
0.00 0.00 0.00 0.00 0.00 0.00 0.00 0.00 0.00 0.00 0.00 0.00 0.00 0.00 0.00 0.00 0.00 0.00 0.00 0.00 0.00 0.00 0.00 0.00 0.00 0.00 0.00 0.00 0.00 0.00 0.00 0.00 0.00 0.00 0.00 0.00 0.00 0.00 0.00 0.00 0.00 0.00 0.00 0.00 0.00
0.01 0.00 0.00 0.00 0.00 0.00 0.00 0.00 0.00 0.00 0.00 0.00 0.00 0.00 0.00 0.00 0.00 0.00 0.00 0.00 0.00 0.00 0.00 0.00 0.00 0.00 0.00 0.00 0.00 0.00 0.00 0.00 0.00 0.00 0.00 0.00 0.00 0.00 0.00 0.00 0.00 0.00 0.00 0.00 0.00
0.03 0.01 0.00 0.00 0.00 0.00 0.00 0.00 0.00 0.00 0.00 0.00 0.00 0.00 0.00 0.00 0.00 0.00 0.00 0.00 0.00 0.00 0.00 0.00 0.00 0.00 0.00 0.00 0.00 0.00 0.00 0.00 0.00 0.00 0.00 0.00 0.00 0.00 0.00 0.00 0.00 0.00 0.00 0.00 0.00
0.02 0.02 0.01 0.00 0.00 0.00 0.00 0.00 0.00 0.00 0.00 0.00 0.00 0.00 0.00 0.00 0.00 0.00 0.00 0.00 0.00 0.00 0.00 0.00 0.00 0.00 0.00 0.00 0.00 0.00 0.00 0.00 0.00 0.00 0.00 0.00 0.00 0.00 0.00 0.00 0.00 0.00 0.00 0.00 0.00
0.03 0.06 0.06 0.01 0.00 0.00 0.00 0.00 0.00 0.00 0.00 0.00 0.00 0.00 0.00 0.00 0.00 0.00 0.00 0.00 0.00 0.00 0.00 0.00 0.00 0.00 0.00 0.00 0.00 0.00 0.00 0.00 0.00 0.00 0.00 0.00 0.00 0.00 0.00 0.00 0.00 0.00 0.00 0.00 0.00
MSLP
1017.94 1017.47 1016.97 1016.42 1015.84 1015.37 1014.94 1014.41 1013.84 1013.31 1012.77 1012.38 1011.90 1011.40 1011.05 1010.48 1009.40 1008.54 1007.23 1004.61 1004.18 1004.12 1004.65 1004.26 1004.88 1004.87 1004.63 1004.66 1005.73 1007.41 1008.11 1007.03 1004.38 1002.41 1002.01 1001.58 1002.13 1003.07 1003.65 1005.05 1006.50 1006.55 1007.79 1008.71 1010.03
1017.98 1017.48 1017.00 1016.46 1015.84 1015.23 1014.65 1014.22 1013.78 1013.20 1012.61 1012.07 1011.73 1011.28 1010.84 1010.38 1009.24 1006.58 1003.24 1003.06 1003.03 1003.77 1004.34 1003.93 1003.99 1004.39 1004.49 1003.89 1005.66 1006.46 1007.22 1005.48 1003.12 1002.37 1001.58 1001.44 1001.77 1002.67 1003.75 1004.96 1005.61 1006.72 1007.75 1008.69 1009.43
1017.99 1017.47 1016.93 1016.40 1015.83 1015.21 1014.53 1013.84 1013.36 1012.96 1012.49 1011.91 1011.49 1011.05 1010.67 1010.37 1008.76 1003.47 1001.46 1001.46 1002.39 1003.21 1003.23 1003.20 1003.25 1003.47 1003.83 1003.33 1005.08 1005.53 1004.99 1003.30 1002.13 1001.28 1000.80 1001.01 1001.50 1002.07 1003.04 1004.49 1005.10 1006.16 1007.19 1008.37 1009.26
1017.87 1017.36 1016.77 1016.17 1015.57 1015.01 1014.35 1013.60 1012.95 1012.50 1012.12 1011.82 1011.30 1010.84 1010.36 1010.14 1006.82 1002.00 1001.61 1001.29 1002.00 1002.89 1003.24 1003.01 1002.93 1003.05 1003.23 1003.05 1003.62 1004.18 1002.91 1001.86 1001.26 1000.40 1000.14 1000.51 1001.10 1001.99 1002.56 1003.41 1004.55 1005.89 1006.64 1007.52 1008.89
1017.86 1017.26 1016.71 1016.05 1015.28 1014.53 1013.95 1013.39 1012.68 1012.07 1011.62 1011.33 1011.12 1010.74 1009.88 1008.81 1004.39 1001.87 1002.04 1002.08 1002.31 1002.83 1002.77 1002.82 1002.76 1002.52 1002.43 1002.07 1002.33 1002.56 1001.77 1001.15 1000.20 999.95 1000.22 999.97 1000.65 1001.52 1002.20 1002.96 1004.46 1005.83 1006.72 1007.34 1008.11
1017.94 1017.29 1016.61 1015.94 1015.12 1014.21 1013.43 1012.75 1012.20 1011.64 1011.06 1010.80 1010.71 1010.63 1009.92 1006.73 1001.49 1000.97 1001.47 1002.20 1002.00 1002.04 1002.03 1002.15 1001.95 1001.66 1001.45 1001.07 1000.97 1000.91 1001.12 1000.12 998.57 998.74 999.11 999.84 1000.34 1001.30 1002.43 1003.26 1004.33 1005.50 1006.68 1007.25 1007.78
1017.81 1017.08 1016.34 1015.63 1014.83 1013.96 1012.99 1012.06 1011.37 1010.86 1010.42 1010.12 1010.17 1010.02 1008.36 1003.00 1000.55 1000.31 1000.88 1000.99 1001.08 1001.19 1001.43 1001.31 1001.31 1001.47 1001.05 1000.81 1000.04 999.99 1000.04 999.90 998.90 998.63 998.90 999.73 1001.56 1001.85 1002.32 1003.14 1004.16 1005.26 1006.40 1007.24 1007.62
1017.77 1016.91 1015.96 1015.02 1014.19 1013.29 1012.46 1011.56 1010.45 1009.58 1009.38 1009.37 1009.51 1009.09 1005.92 1000.90 1000.25 1000.37 1000.57 1000.57 1000.28 1000.30 1000.69 1000.57 1000.67 1000.89 1001.13 1000.72 1000.25 1000.08 999.71 999.18 998.16 998.01 998.56 999.69 1001.93 1002.10 1002.33 1003.00 1004.13 1005.05 1006.04 1006.91 1007.33
1017.66 1016.80 1015.79 1014.58 1013.62 1012.73 1011.56 1010.24 1009.00 1008.08 1008.23 1008.77 1009.02 1008.10 1003.46 999.29 999.61 998.87 999.18 999.67 999.58 999.85 1000.05 999.96 1000.11 1000.69 1000.95 1001.20 1001.13 1000.17 1000.02 999.12 997.92 997.61 998.48 999.36 1001.40 1001.35 1001.89 1002.70 1003.59 1004.42 1005.50 1006.34 1006.92
1017.51 1016.66 1015.78 1014.67 1013.37 1012.38 1011.13 1009.13 1007.45 1007.67 1008.04 1008.12 1007.33 1006.97 1001.94 998.84 997.64 997.89 998.15 998.77 999.22 999.64 999.88 999.87 1000.23 1000.55 1000.74 1001.02 1000.90 1000.45 999.84 998.88 998.14 997.63 998.46 999.90 1001.08 1001.49 1001.81 1002.42 1003.14 1003.70 1004.57 1005.62 1006.22
1017.49 1016.64 1015.58 1014.37 1013.17 1012.24 1011.39 1009.41 1007.64 1007.28 1006.52 1005.22 1004.03 1002.20 999.29 997.91 997.08 997.07 997.34 998.23 998.88 999.42 999.80 999.89 1000.34 999.77 1000.14 1000.23 1000.25 999.94 999.30 998.57 997.49 997.32 998.41 999.82 1000.79 1001.14 1001.07 1002.11 1002.89 1002.89 1003.58 1004.46 1005.24
1017.32 1016.49 1015.48 1014.02 1012.53 1011.31 1011.23 1009.95 1007.12 1005.85 1003.81 1002.84 1001.33 1000.52 999.33 998.25 997.84 996.42 996.63 997.81 998.39 999.00 999.46 999.84 999.04 999.57 999.77 999.62 999.71 999.25 998.75 997.99 997.79 996.45 997.90 999.39 1000.71 1000.80 1000.57 1000.37 1001.35 1002.10 1002.65 1003.28 1004.24
1016.99 1016.25 1015.33 1013.95 1011.80 1010.48 1010.21 1008.38 1006.27 1005.23 1004.01 999.93 998.44 997.82 997.36 997.69 997.07 995.93 996.06 996.80 997.54 998.32 998.43 998.63 998.33 998.97 998.90 998.69 998.64 998.36 997.88 997.47 997.93 997.63 998.30 999.86 1001.08 1001.24 1000.06 999.95 1000.60 1001.23 1001.48 1002.17 1002.79
1016.85 1016.09 1015.47 1014.26 1011.02 1011.00 1009.15 1007.20 1006.14 1005.44 1003.75 998.34 995.83 994.13 995.22 996.20 995.68 995.34 995.01 995.89 996.68 997.12 997.86 997.85 997.83 997.68 997.72 997.50 997.58 997.48 996.89 997.21 997.36 998.17 998.64 999.80 1000.89 1001.31 999.93 999.75 999.84 1000.21 1000.62 1001.17 1001.84
1016.55 1015.94 1015.39 1015.48 1014.29 1011.68 1008.86 1007.84 1006.76 1005.73 1003.03 994.98 992.95 991.76 992.65 994.23 993.99 993.95 994.12 994.92 995.36 996.30 996.90 995.94 996.38 996.36 996.35 996.37 996.64 995.89 996.90 997.01 997.19 997.57 998.46 999.32 1000.47 999.46 999.47 999.60 999.48 999.39 999.66 1000.00 1000.55
1016.12 1015.59 1015.20 1014.00 1013.37 1010.63 1009.49 1008.08 1006.96 1006.03 1000.77 994.80 991.85 992.12 993.18 994.02 993.42 992.56 993.72 994.47 995.04 995.72 995.95 995.48 995.33 995.25 995.16 995.40 995.60 995.97 996.68 996.87 997.11 997.46 998.51 998.48 999.16 998.62 998.06 998.16 998.30 998.18 998.46 998.87 999.52
1015.84 1015.09 1014.75 1014.33 1012.00 1009.41 1009.90 1008.38 1007.23 1003.79 997.96 994.57 992.55 992.12 992.52 993.04 993.44 993.33 993.94 994.35 994.44 994.96 994.93 995.00 994.52 994.30 994.29 994.60 994.88 995.35 996.29 997.04 997.50 997.29 996.92 997.25 997.58 996.26 995.93 996.14 995.98 996.44 996.91 997.56 998.17
1015.81 1014.46 1012.42 1011.44 1010.35 1010.76 1010.44 1009.03 1005.78 1000.69 998.54 994.34 994.59 993.57 992.75 992.54 992.61 992.93 993.30 993.62 993.94 994.43 994.77 994.83 994.12 993.30 992.84 993.19 993.76 994.17 995.34 995.83 996.37 996.94 996.93 996.21 995.47 994.53 994.00 993.80 994.17 995.00 995.77 996.79 997.13
1015.27 1013.34 1011.59 1008.49 1008.70 1009.82 1010.20 1007.96 1003.39 1001.23 999.33 998.79 996.21 994.61 993.17 992.45 992.21 992.51 992.34 992.38 992.67 993.46 993.85 993.75 993.21 992.31 992.25 992.24 992.88 993.70 993.52 995.09 996.42 996.92 996.68 995.61 994.47 993.39 993.06 993.38 994.06 994.42 994.92 995.99 996.52
1015.54 1013.08 1010.18 1007.49 1007.51 1008.63 1008.55 1005.67 1003.55 1001.73 1000.96 1001.29 1000.54 997.90 995.97 995.20 995.08 992.18 991.95 991.28 991.52 992.06 993.19 992.92 992.80 992.25 991.75 991.85 991.95 992.20 993.51 994.68 995.23 996.21 995.97 995.25 994.13 992.95 992.46 992.86 993.36 993.78 993.83 994.36 995.01
1015.07 1012.23 1007.61 1006.63 1006.23 1006.71 1006.08 1005.51 1004.77 1003.67 1002.62 1002.07 1001.21 999.70 998.63 997.11 996.66 994.84 992.95 990.55 990.34 990.93 991.71 992.57 992.81 992.00 991.26 990.59 991.28 991.84 992.41 993.78 994.63 995.39 995.50 995.25 993.01 992.08 991.75 991.82 992.52 992.76 992.67 992.90 993.05
1014.57 1012.21 1007.22 1007.43 1007.15 1005.82 1005.68 1005.76 1005.41 1003.98 1003.33 1001.86 1001.47 1000.76 999.81 998.71 996.80 995.78 993.87 992.60 990.50 989.72 990.27 990.90 991.79 991.74 990.66 990.21 990.00 990.42 991.30 992.82 994.13 994.90 995.06 994.87 992.57 991.10 991.16 991.31 990.78 991.16 992.13 992.13 992.36
1014.80 1012.30 1008.12 1007.97 1007.56 1006.71 1005.89 1005.07 1004.49 1003.90 1003.25 1002.82 1001.78 1001.32 1000.38 999.14 998.17 996.21 994.52 992.61 991.68 991.24 989.08 989.79 990.12 991.35 990.64 990.04 989.48 989.20 990.38 991.34 992.65 994.20 993.98 994.38 991.86 991.11 990.89 991.35 991.22 992.61 992.65 992.15 991.81
1015.65 1012.58 1009.16 1008.08 1007.73 1007.55 1007.24 1006.54 1006.01 1005.13 1004.35 1003.77 1003.28 1002.61 1001.69 1000.18 999.37 996.88 995.83 993.73 992.40 991.30 990.51 990.28 988.78 988.94 988.69 988.59 989.24 989.04 989.23 990.09 991.41 992.34 992.60 991.85 992.58 991.42 990.58 991.07 990.51 990.49 991.26 991.79 992.11
1015.87 1013.61 1011.91 1010.44 1009.14 1009.56 1008.95 1008.18 1006.80 1005.90 1005.01 1004.79 1004.07 1004.56 1004.09 1002.62 1001.41 999.49 998.23 996.88 994.70 993.48 991.89 991.13 989.75 987.87 987.98 988.51 988.39 988.26 988.21 988.65 989.42 990.06 991.19 991.60 991.82 991.11 990.88 990.57 990.58 990.46 991.01 991.12 991.14
1016.12 1014.60 1013.57 1012.56 1011.21 1009.96 1008.67 1007.43 1006.50 1006.65 1006.45 1005.66 1005.78 1005.17 1005.21 1004.67 1003.76 1002.01 1001.29 1000.44 998.51 995.50 995.31 993.42 991.06 988.55 987.57 987.68 987.97 987.63 987.38 987.54 987.96 988.84 989.53 990.27 989.96 990.28 990.21 990.34 990.00 990.25 989.84 990.89 991.36
1015.30 1014.87 1014.57 1013.23 1011.79 1010.57 1009.25 1008.11 1007.64 1007.07 1006.98 1006.71 1006.22 1005.51 1005.68 1004.85 1003.48 1002.41 1001.94 1000.93 999.90 998.69 996.78 995.12 992.87 990.61 987.97 987.51 987.60 987.56 985.57 986.83 987.02 987.26 988.12 988.51 989.29 989.98 989.98 990.19 990.19 989.76 990.02 989.68 990.55
Thickness
5741 5744 5747 5750 5753 5757 5759 5762 5765 5769 5773 5775 5779 5784 5788 5794 5804 5812 5814 5839 5846 5851 5849 5849 5842 5839 5844 5833 5825 5810 5773 5766 5792 5818 5825 5845 5832 5839 5839 5819 5813 5823 5813 5809 5808
5741 5743 5745 5748 5752 5756 5760 5763 5766 5769 5773 5776 5779 5782 5787 5792 5803 5818 5854 5856 5858 5853 5844 5839 5831 5833 5823 5832 5813 5797 5771 5792 5832 5834 5833 5845 5840 5836 5823 5812 5811 5811 5815 5814 5811
5739 5742 5744 5747 5750 5754 5759 5764 5768 5771 5773 5777 5779 5782 5785 5790 5798 5835 5869 5869 5861 5856 5854 5850 5845 5835 5818 5835 5815 5808 5796 5830 5840 5851 5855 5844 5840 5847 5827 5803 5818 5809 5809 5811 5808
5738 5742 5745 5748 5751 5754 5759 5764 5769 5772 5774 5777 5779 5782 5786 5787 5784 5852 5864 5869 5863 5857 5848 5843 5838 5822 5816 5814 5827 5808 5835 5847 5848 5861 5858 5846 5848 5834 5834 5829 5834 5824 5822 5815 5806
5736 5740 5744 5747 5752 5757 5760 5764 5769 5773 5776 5778 5779 5781 5788 5788 5813 5854 5857 5859 5858 5850 5841 5835 5827 5827 5816 5830 5830 5823 5838 5853 5862 5862 5857 5865 5847 5838 5834 5844 5842 5829 5821 5815 5810
5732 5737 5742 5746 5752 5758 5763 5767 5771 5774 5778 5780 5780 5780 5783 5785 5856 5859 5857 5851 5853 5848 5843 5841 5838 5845 5836 5837 5833 5844 5846 5857 5876 5870 5874 5855 5851 5844 5840 5844 5837 5826 5815 5815 5813
5730 5735 5740 5745 5751 5757 5764 5771 5776 5779 5781 5783 5782 5783 5790 5819 5862 5867 5858 5854 5856 5852 5839 5851 5852 5835 5843 5832 5856 5852 5837 5851 5868 5875 5868 5866 5826 5825 5842 5843 5832 5824 5818 5814 5815
5725 5731 5739 5746 5752 5759 5765 5772 5780 5786 5788 5787 5785 5788 5793 5855 5863 5857 5856 5850 5860 5861 5853 5856 5857 5843 5835 5848 5842 5829 5834 5815 5860 5877 5877 5852 5798 5834 5845 5839 5828 5824 5819 5815 5816
5721 5727 5735 5745 5752 5759 5769 5779 5788 5795 5793 5788 5786 5788 5804 5868 5850 5865 5863 5846 5853 5854 5854 5859 5850 5831 5833 5812 5800 5817 5795 5814 5842 5878 5867 5849 5808 5843 5852 5841 5833 5829 5822 5818 5817
5716 5723 5731 5740 5750 5757 5768 5783 5796 5794 5791 5788 5795 5783 5827 5841 5865 5866 5869 5858 5843 5841 5833 5830 5823 5808 5810 5798 5771 5793 5805 5821 5828 5862 5860 5832 5826 5842 5847 5839 5836 5836 5829 5822 5820
5712 5718 5726 5736 5746 5753 5759 5775 5791 5787 5792 5797 5804 5818 5842 5861 5874 5862 5868 5851 5842 5828 5802 5817 5792 5793 5804 5816 5822 5825 5822 5822 5850 5874 5853 5833 5827 5837 5849 5837 5833 5840 5835 5831 5829
5706 5712 5720 5731 5744 5754 5753 5761 5780 5788 5789 5813 5823 5829 5839 5850 5833 5855 5868 5832 5823 5803 5811 5800 5792 5815 5823 5824 5820 5823 5820 5824 5847 5874 5851 5839 5823 5843 5849 5854 5848 5844 5840 5839 5837
5700 5706 5714 5722 5741 5753 5752 5764 5786 5790 5771 5820 5834 5836 5841 5842 5831 5844 5854 5840 5822 5809 5811 5797 5812 5824 5818 5816 5813 5818 5819 5827 5826 5848 5853 5830 5807 5816 5851 5859 5856 5852 5853 5852 5850
5689 5695 5701 5713 5739 5738 5747 5771 5777 5781 5740 5809 5833 5854 5852 5843 5832 5859 5866 5843 5824 5812 5812 5807 5825 5818 5811 5811 5821 5801 5846 5845 5838 5824 5797 5830 5778 5800 5834 5841 5847 5851 5853 5855 5856
5679 5684 5689 5689 5698 5716 5741 5754 5764 5763 5704 5836 5847 5885 5866 5839 5845 5847 5867 5846 5822 5818 5812 5816 5817 5815 5809 5816 5830 5829 5845 5842 5842 5830 5808 5810 5788 5809 5832 5823 5838 5850 5858 5863 5865
5669 5673 5677 5685 5692 5712 5723 5738 5743 5715 5711 5806 5847 5838 5833 5831 5838 5855 5841 5847 5844 5820 5819 5825 5842 5832 5828 5836 5837 5849 5832 5835 5836 5827 5774 5808 5801 5809 5820 5834 5840 5857 5864 5870 5870
5655 5661 5664 5669 5682 5709 5705 5714 5696 5700 5788 5803 5818 5830 5825 5817 5820 5822 5815 5806 5800 5785 5790 5817 5822 5837 5841 5817 5831 5831 5805 5776 5768 5776 5773 5824 5806 5822 5859 5863 5869 5873 5873 5879 5880
5638 5648 5664 5670 5681 5678 5682 5682 5679 5746 5756 5809 5796 5806 5800 5816 5814 5817 5804 5794 5811 5803 5786 5777 5776 5826 5848 5828 5811 5818 5809 5781 5739 5759 5783 5824 5794 5829 5884 5891 5894 5887 5883 5875 5879
5622 5636 5649 5673 5671 5662 5655 5657 5701 5725 5746 5735 5761 5768 5788 5805 5807 5804 5801 5800 5812 5811 5782 5781 5787 5844 5843 5848 5837 5810 5800 5828 5786 5797 5779 5811 5834 5865 5882 5880 5880 5878 5876 5874 5876
5594 5611 5630 5653 5653 5642 5637 5658 5684 5706 5708 5698 5687 5729 5735 5744 5740 5789 5793 5816 5808 5819 5815 5801 5773 5823 5837 5844 5841 5827 5834 5789 5797 5754 5755 5796 5808 5816 5857 5865 5871 5875 5884 5886 5884
5565 5588 5623 5626 5630 5623 5625 5636 5648 5667 5675 5669 5674 5692 5704 5719 5723 5735 5761 5811 5823 5813 5818 5805 5787 5798 5823 5816 5811 5808 5807 5801 5803 5795 5763 5762 5799 5863 5865 5878 5873 5880 5891 5894 5895
5530 5544 5588 5583 5577 5597 5598 5608 5617 5634 5646 5658 5663 5669 5679 5695 5707 5716 5739 5761 5818 5827 5797 5810 5791 5769 5792 5829 5844 5837 5818 5804 5769 5763 5781 5782 5797 5881 5885 5885 5893 5891 5892 5897 5898
5487 5510 5546 5541 5538 5553 5575 5590 5600 5608 5616 5618 5627 5642 5663 5680 5679 5709 5727 5768 5784 5779 5807 5812 5785 5753 5771 5799 5820 5817 5825 5820 5814 5792 5775 5758 5796 5874 5883 5875 5880 5870 5878 5888 5893
5443 5472 5506 5511 5521 5522 5524 5529 5535 5559 5568 5578 5589 5603 5618 5643 5666 5689 5704 5747 5764 5779 5788 5801 5799 5777 5764 5786 5805 5796 5815 5821 5809 5779 5785 5792 5799 5832 5871 5866 5874 5884 5888 5887 5879
5416 5440 5459 5474 5489 5485 5496 5497 5514 5529 5544 5548 5558 5556 5567 5582 5604 5641 5665 5684 5718 5737 5754 5762 5754 5792 5795 5802 5811 5810 5814 5818 5805 5811 5778 5803 5802 5827 5854 5865 5868 5879 5879 5885 5887
5404 5418 5432 5444 5463 5476 5493 5508 5517 5509 5509 5524 5520 5537 5535 5546 5565 5595 5615 5636 5659 5701 5698 5722 5735 5782 5779 5798 5800 5798 5815 5819 5819 5818 5812 5810 5809 5844 5860 5867 5872 5870 5884 5877 5879
5414 5415 5413 5429 5447 5463 5478 5487 5489 5486 5499 5505 5508 5517 5519 5533 5555 5582 5600 5625 5644 5656 5674 5691 5710 5734 5753 5782 5784 5768 5802 5808 5819 5828 5820 5799 5823 5840 5841 5854 5863 5871 5870 5882 5877